Satellite: NOAA-19
Catalog number: 33591
Epoch time:      10244.72689061
Element set:    0660
Inclination:      098.7916 deg
RA of node:       185.2339 deg
Eccentricity:    0.0015126
Arg of perigee:   073.2412 deg
Mean anomaly:     287.0420 deg
Mean motion:   14.11080342 rev/day
Decay rate:        5.1e-07 rev/day^2
Epoch rev:           08070
Checksum:              277

/EX
SB KEPS @ AMSAT  $ORB10245.M
Orbital Elements  10245.MISC

HR AMSAT ORBITAL ELEMENTS FOR MANNED AND MISCELLANEOUS SATELLITES
FROM WA5QGD FORT WORTH,TX September 2, 2010
Send Subscribe/unsubscribe to KEPS at http://www.amsat.org/mailman/listinfo/kep
BID: ORB10245.M
TO ALL RADIO AMATEURS BT

Satellite: HUBBLE
Catalog number: 20580
Epoch time:      10245.04443848
Element set:     638
Inclination:      028.4723 deg
RA of node:       098.0892 deg
Eccentricity:    0.0003379
Arg of perigee:   294.3708 deg
Mean anomaly:     065.6530 deg
Mean motion:   15.01026337 rev/day
Decay rate:       4.31e-06 rev/day^2
Epoch rev:           91631
Checksum:              286

Satellite: ISS
Catalog number: 25544
Epoch time:      10246.02087851
Element set:     821
Inclination:      051.6457 deg
RA of node:       192.3593 deg
Eccentricity:    0.0008009
Arg of perigee:   327.7100 deg
Mean anomaly:     125.2858 deg
Mean motion:   15.71426498 rev/day
Decay rate:      8.494e-05 rev/day^2
Epoch rev:           67571
Checksum:              309

Satellite: CO-58
Catalog number: 28895
Epoch time:      10244.67561886
Element set:    0671
Inclination:      098.0024 deg
RA of node:       126.5741 deg
Eccentricity:    0.0018842
Arg of perigee:   048.3198 deg
Mean anomaly:     311.9613 deg
Mean motion:   14.59926648 rev/day
Decay rate:        9.1e-07 rev/day^2
Epoch rev:           25814
Checksum:              341

Satellite: FALCON
Catalog number: 30776
Epoch time:      10244.56926002
Element set:    0918
Inclination:      035.4348 deg
RA of node:       300.5227 deg
Eccentricity:    0.0000319
Arg of perigee:   053.3965 deg
Mean anomaly:     306.6781 deg
Mean motion:   15.03789867 rev/day
Decay rate:       5.97e-06 rev/day^2
Epoch rev:           19156
Checksum:              309

Satellite: MAST
Catalog number: 31126
Epoch time:      10245.59288253
Element set:     953
Inclination:      097.9302 deg
RA of node:       283.5771 deg
Eccentricity:    0.0094689
Arg of perigee:   346.2653 deg
Mean anomaly:     013.5974 deg
Mean motion:   14.53614353 rev/day
Decay rate:      -1.28e-06 rev/day^2
Epoch rev:           17930
Checksum:              317

Satellite: CAPE1
Catalog number: 31130
Epoch time:      10244.54797620
Element set:    0974
Inclination:      097.9347 deg
RA of node:       279.8472 deg
Eccentricity:    0.0102995
Arg of perigee:   358.1766 deg
Mean anomaly:     001.9029 deg
Mean motion:   14.52217242 rev/day
Decay rate:       4.57e-06 rev/day^2
Epoch rev:           17874
Checksum:              323

Satellite: COMPASS
Catalog number: 32787
Epoch time:      10245.68314439
Element set:     765
Inclination:      097.8872 deg
RA of node:       309.3504 deg
Eccentricity:    0.0016561
Arg of perigee:   036.1623 deg
Mean anomaly:     324.0725 deg
Mean motion:   14.81953732 rev/day
Decay rate:       5.70e-06 rev/day^2
Epoch rev:           12697
Checksum:              312

Satellite: AAUSAT2
Catalog number: 32788
Epoch time:      10245.67862129
Element set:     757
Inclination:      097.8875 deg
RA of node:       309.4901 deg
Eccentricity:    0.0016313
Arg of perigee:   038.1451 deg
Mean anomaly:     322.0949 deg
Mean motion:   14.82100559 rev/day
Decay rate:       5.96e-06 rev/day^2
Epoch rev:           12698
Checksum:              327

Satellite: DO-64
Catalog number: 32789
Epoch time:      10244.80148031
Element set:    0777
Inclination:      097.8944 deg
RA of node:       309.1883 deg
Eccentricity:    0.0016332
Arg of perigee:   038.8418 deg
Mean anomaly:     321.3976 deg
Mean motion:   14.82279558 rev/day
Decay rate:       1.96e-06 rev/day^2
Epoch rev:           12685
Checksum:              346

Satellite: CO-66
Catalog number: 32791
Epoch time:      10244.23098813
Element set:    0759
Inclination:      097.8901 deg
RA of node:       307.9251 deg
Eccentricity:    0.0016863
Arg of perigee:   039.6541 deg
Mean anomaly:     320.5893 deg
Mean motion:   14.81726772 rev/day
Decay rate:       6.83e-06 rev/day^2
Epoch rev:           12671
Checksum:              332

Satellite: RS-30
Catalog number: 32953
Epoch time:      10245.64046482
Element set:       8
Inclination:      082.5072 deg
RA of node:       341.5171 deg
Eccentricity:    0.0017673
Arg of perigee:   295.1851 deg
Mean anomaly:     064.7396 deg
Mean motion:   12.43007528 rev/day
Decay rate:        1.0e-07 rev/day^2
Epoch rev:           10336
Checksum:              272

Satellite: TACSAT-3
Catalog number: 35001
Epoch time:      10244.91436133
Element set:    0388
Inclination:      040.4569 deg
RA of node:       112.9831 deg
Eccentricity:    0.0021747
Arg of perigee:   223.4306 deg
Mean anomaly:     136.4782 deg
Mean motion:   15.42500299 rev/day
Decay rate:      3.467e-05 rev/day^2
Epoch rev:           07248
Checksum:              284

